^^
No Wait Weather (KNEBELLE1) Station Historical Data
Daily Summary for May 10, 2019 Units:  English    Metric   Both
Daily Weekly Monthly Yearly Custom
  High: Low: Average:
Temperature: 64.5 °F 41.6 °F 53 °F
Dew Point: 42.38 °F 27.21 °F 36.2 °F
Humidity: 89% 27% 57%
Wind Speed: 3mph 0mph 0.1mph
Wind Gust: 6mph - -
Wind- - SE
Pressure: 30.12 in 29.93 in -
Precipitation: 0 in    
Historical Graphs
 
 
Tabular Data for May 10, 2019
Time Temperature Dew Point Pressure Wind Wind Speed Wind Gust Humidity Rainfall Rate (Hourly) solar
00:04 46.5 °F 39.35 °F 30.02 in Calm     76% 0 in WeatherCatV3.04B91 W/m2
00:09 46.2 °F 39.39 °F 30.02 in Calm     77% 0 in WeatherCatV3.04B91 W/m2
00:14 46 °F 39.53 °F 30.03 in Calm     78% 0 in WeatherCatV3.04B91 W/m2
00:19 45.7 °F 39.24 °F 30.03 in Calm     78% 0 in WeatherCatV3.04B91 W/m2
00:24 45.4 °F 39.27 °F 30.03 in Calm     79% 0 in WeatherCatV3.04B91 W/m2
00:29 45.2 °F 39.4 °F 30.03 in Calm     80% 0 in WeatherCatV3.04B91 W/m2
00:34 45.1 °F 39.3 °F 30.03 in Calm     80% 0 in WeatherCatV3.04B91 W/m2
00:39 45.1 °F 39.62 °F 30.03 in Calm     81% 0 in WeatherCatV3.04B91 W/m2
00:44 44.9 °F 39.43 °F 30.03 in Calm     81% 0 in WeatherCatV3.04B91 W/m2
00:49 44.9 °F 39.74 °F 30.03 in Calm     82% 0 in WeatherCatV3.04B91 W/m2
00:54 44.9 °F 39.74 °F 30.03 in Calm     82% 0 in WeatherCatV3.04B91 W/m2
00:59 44.9 °F 39.74 °F 30.04 in Calm     82% 0 in WeatherCatV3.04B91 W/m2
01:04 44.9 °F 39.74 °F 30.04 in Calm     82% 0 in WeatherCatV3.04B91 W/m2
01:09 45.1 °F 39.94 °F 30.04 in Calm     82% 0 in WeatherCatV3.04B91 W/m2
01:14 45.2 °F 40.04 °F 30.04 in Calm     82% 0 in WeatherCatV3.04B91 W/m2
01:19 45.5 °F 40.01 °F 30.04 in Calm     81% 0 in WeatherCatV3.04B91 W/m2
01:24 45.8 °F 40.31 °F 30.04 in Calm     81% 0 in WeatherCatV3.04B91 W/m2
01:29 46 °F 40.18 °F 30.04 in Calm     80% 0 in WeatherCatV3.04B91 W/m2
01:34 46.2 °F 40.05 °F 30.04 in Calm     79% 0 in WeatherCatV3.04B91 W/m2
01:39 46.4 °F 40.25 °F 30.04 in Calm     79% 0 in WeatherCatV3.04B91 W/m2
01:44 46.4 °F 39.92 °F 30.05 in Calm     78% 0 in WeatherCatV3.04B91 W/m2
01:49 46.5 °F 40.02 °F 30.05 in Calm     78% 0 in WeatherCatV3.04B91 W/m2
01:54 46.5 °F 40.02 °F 30.05 in Calm     78% 0 in WeatherCatV3.04B91 W/m2
01:59 46.4 °F 39.92 °F 30.04 in Calm     78% 0 in WeatherCatV3.04B91 W/m2
02:04 46.4 °F 39.92 °F 30.04 in Calm     78% 0 in WeatherCatV3.04B91 W/m2
02:09 46.5 °F 40.02 °F 30.04 in Calm     78% 0 in WeatherCatV3.04B91 W/m2
02:14 46.5 °F 39.68 °F 30.03 in Calm     77% 0 in WeatherCatV3.04B91 W/m2
02:19 46.7 °F 39.88 °F 30.03 in Calm     77% 0 in WeatherCatV3.04B91 W/m2
02:24 46.7 °F 39.88 °F 30.03 in Calm     77% 0 in WeatherCatV3.04B91 W/m2
02:29 46.8 °F 39.98 °F 30.03 in Calm     77% 0 in WeatherCatV3.04B91 W/m2
02:34 46.8 °F 39.98 °F 30.03 in Calm     77% 0 in WeatherCatV3.04B91 W/m2
02:39 46.8 °F 39.98 °F 30.03 in Calm     77% 0 in WeatherCatV3.04B91 W/m2
02:44 46.8 °F 39.98 °F 30.03 in Calm     77% 0 in WeatherCatV3.04B91 W/m2
02:49 46.8 °F 40.31 °F 30.03 in Calm     78% 0 in WeatherCatV3.04B91 W/m2
02:54 46.7 °F 40.21 °F 30.03 in Calm     78% 0 in WeatherCatV3.04B91 W/m2
02:59 46.7 °F 40.54 °F 30.03 in Calm     79% 0 in WeatherCatV3.04B91 W/m2
03:04 46.5 °F 40.34 °F 30.03 in Calm     79% 0 in WeatherCatV3.04B91 W/m2
03:09 46.4 °F 40.25 °F 30.03 in Calm     79% 0 in WeatherCatV3.04B91 W/m2
03:14 46.4 °F 40.25 °F 30.04 in Calm     79% 0 in WeatherCatV3.04B91 W/m2
03:19 46.2 °F 40.05 °F 30.04 in Calm     79% 0 in WeatherCatV3.04B91 W/m2
03:24 46.1 °F 39.95 °F 30.04 in Calm     79% 0 in WeatherCatV3.04B91 W/m2
03:29 45.8 °F 39.99 °F 30.04 in Calm     80% 0 in WeatherCatV3.04B91 W/m2
03:34 45.7 °F 39.89 °F 30.04 in Calm     80% 0 in WeatherCatV3.04B91 W/m2
03:39 45.5 °F 39.69 °F 30.04 in Calm     80% 0 in WeatherCatV3.04B91 W/m2
03:44 45.2 °F 39.4 °F 30.04 in Calm     80% 0 in WeatherCatV3.04B91 W/m2
03:49 45.1 °F 39.62 °F 30.04 in Calm     81% 0 in WeatherCatV3.04B91 W/m2
03:54 44.8 °F 39.33 °F 30.04 in Calm     81% 0 in WeatherCatV3.04B91 W/m2
03:59 44.5 °F 39.04 °F 30.04 in Calm     81% 0 in WeatherCatV3.04B91 W/m2
04:04 44.3 °F 39.16 °F 30.04 in Calm     82% 0 in WeatherCatV3.04B91 W/m2
04:09 44.2 °F 39.06 °F 30.04 in Calm     82% 0 in WeatherCatV3.04B91 W/m2
04:14 44.1 °F 39.27 °F 30.04 in Calm     83% 0 in WeatherCatV3.04B91 W/m2
04:19 43.8 °F 38.98 °F 30.04 in Calm     83% 0 in WeatherCatV3.04B91 W/m2
04:24 43.6 °F 38.78 °F 30.04 in Calm     83% 0 in WeatherCatV3.04B91 W/m2
04:29 43.5 °F 38.99 °F 30.03 in Calm     84% 0 in WeatherCatV3.04B91 W/m2
04:34 43.3 °F 38.8 °F 30.03 in Calm     84% 0 in WeatherCatV3.04B91 W/m2
04:39 43.3 °F 39.1 °F 30.03 in Calm     85% 0 in WeatherCatV3.04B91 W/m2
04:44 43.3 °F 39.1 °F 30.03 in Calm     85% 0 in WeatherCatV3.04B91 W/m2
04:49 43.2 °F 39.3 °F 30.03 in Calm     86% 0 in WeatherCatV3.04B91 W/m2
04:54 43.3 °F 39.4 °F 30.03 in Calm     86% 0 in WeatherCatV3.04B91 W/m2
04:59 43.3 °F 39.4 °F 30.02 in Calm     86% 0 in WeatherCatV3.04B91 W/m2
05:04 43.3 °F 39.4 °F 30.02 in Calm     86% 0 in WeatherCatV3.04B91 W/m2
05:09 43.1 °F 39.2 °F 30.02 in Calm     86% 0 in WeatherCatV3.04B91 W/m2
05:14 42.9 °F 39.01 °F 30.01 in Calm     86% 0 in WeatherCatV3.04B91 W/m2
05:19 42.8 °F 39.2 °F 30.01 in Calm     87% 0 in WeatherCatV3.04B91 W/m2
05:24 42.9 °F 39.3 °F 30.01 in Calm     87% 0 in WeatherCatV3.04B91 W/m2
05:29 42.9 °F 39.3 °F 30.01 in Calm     87% 0 in WeatherCatV3.04B91 W/m2
05:34 42.9 °F 39.3 °F 30.01 in Calm     87% 0 in WeatherCatV3.04B91 W/m2
05:39 42.8 °F 39.2 °F 30.01 in Calm     87% 0 in WeatherCatV3.04B91 W/m2
05:44 42.8 °F 39.2 °F 30.01 in Calm     87% 0 in WeatherCatV3.04B91 W/m2
05:49 42.6 °F 39.01 °F 30.01 in Calm     87% 0 in WeatherCatV3.04B91 W/m2
05:54 42.5 °F 38.91 °F 30.01 in Calm     87% 0 in WeatherCatV3.04B91 W/m2
05:59 42.3 °F 39 °F 30.02 in Calm     88% 0 in WeatherCatV3.04B91 W/m2
06:04 42.2 °F 38.9 °F 30.02 in Calm     88% 0 in WeatherCatV3.04B91 W/m2
06:09 42.1 °F 38.81 °F 30.02 in Calm     88% 0 in WeatherCatV3.04B91 W/m2
06:14 41.9 °F 38.61 °F 30.01 in Calm     88% 0 in WeatherCatV3.04B91 W/m2
06:19 41.8 °F 38.51 °F 30.01 in Calm     88% 0 in WeatherCatV3.04B91 W/m2
06:24 41.8 °F 38.51 °F 30.01 in Calm     88% 0 in WeatherCatV3.04B91 W/m2
06:29 41.6 °F 38.6 °F 30.01 in Calm     89% 0 in WeatherCatV3.04B91 W/m2
06:34 41.6 °F 38.6 °F 30.01 in Calm     89% 0 in WeatherCatV3.04B91 W/m2
06:39 41.6 °F 38.6 °F 30.01 in Calm     89% 0 in WeatherCatV3.04B91 W/m2
06:44 41.6 °F 38.6 °F 30.03 in Calm     89% 0 in WeatherCatV3.04B91 W/m2
06:49 41.8 °F 38.8 °F 30.03 in Calm     89% 0 in WeatherCatV3.04B91 W/m2
06:54 41.9 °F 38.9 °F 30.03 in Calm     89% 0 in WeatherCatV3.04B91 W/m2
06:59 42.1 °F 39.1 °F 30.05 in Calm     89% 0 in WeatherCatV3.04B91 W/m2
07:04 42.3 °F 39.29 °F 30.05 in Calm     89% 0 in WeatherCatV3.04B91 W/m2
07:09 42.8 °F 39.79 °F 30.05 in Calm     89% 0 in WeatherCatV3.04B91 W/m2
07:14 43.2 °F 40.18 °F 30.06 in Calm     89% 0 in WeatherCatV3.04B91 W/m2
07:19 43.8 °F 40.48 °F 30.06 in Calm     88% 0 in WeatherCatV3.04B91 W/m2
07:24 44.2 °F 40.58 °F 30.06 in Calm     87% 0 in WeatherCatV3.04B91 W/m2
07:29 44.9 °F 40.97 °F 30.06 in Calm     86% 0 in WeatherCatV3.04B91 W/m2
07:34 45.4 °F 41.16 °F 30.06 in Calm     85% 0 in WeatherCatV3.04B91 W/m2
07:39 46 °F 41.44 °F 30.06 in Calm     84% 0 in WeatherCatV3.04B91 W/m2
07:44 46.8 °F 41.91 °F 30.07 in Calm     83% 0 in WeatherCatV3.04B91 W/m2
07:49 47.6 °F 42.38 °F 30.07 in Calm     82% 0 in WeatherCatV3.04B91 W/m2
07:54 47.9 °F 42.03 °F 30.07 in Calm     80% 0 in WeatherCatV3.04B91 W/m2
07:59 47.9 °F 41.38 °F 30.08 in Calm     78% 0 in WeatherCatV3.04B91 W/m2
08:04 48 °F 41.47 °F 30.08 in Calm     78% 0 in WeatherCatV3.04B91 W/m2
08:09 48.3 °F 41.76 °F 30.08 in Calm     78% 0 in WeatherCatV3.04B91 W/m2
08:14 48.5 °F 41.28 °F 30.09 in Calm     76% 0 in WeatherCatV3.04B91 W/m2
08:19 48.5 °F 41.28 °F 30.09 in Calm     76% 0 in WeatherCatV3.04B91 W/m2
08:24 48.8 °F 41.23 °F 30.09 in Calm     75% 0 in WeatherCatV3.04B91 W/m2
08:29 49.4 °F 41.81 °F 30.09 in Calm     75% 0 in WeatherCatV3.04B91 W/m2
08:34 49.9 °F 41.59 °F 30.09 in Calm     73% 0 in WeatherCatV3.04B91 W/m2
08:39 49.8 °F 40.78 °F 30.09 in Calm     71% 0 in WeatherCatV3.04B91 W/m2
08:44 49.8 °F 41.14 °F 30.10 in Calm     72% 0 in WeatherCatV3.04B91 W/m2
08:49 50.4 °F 41.72 °F 30.10 in Calm     72% 0 in WeatherCatV3.04B91 W/m2
08:54 50.8 °F 41.74 °F 30.10 in Calm     71% 0 in WeatherCatV3.04B91 W/m2
08:59 51 °F 41.93 °F 30.11 in Calm     71% 0 in WeatherCatV3.04B91 W/m2
09:04 51.1 °F 42.03 °F 30.11 in Calm     71% 0 in WeatherCatV3.04B91 W/m2
09:09 51 °F 41.56 °F 30.11 in Calm     70% 0 in WeatherCatV3.04B91 W/m2
09:14 51 °F 41.19 °F 30.11 in Calm   1 mph 69% 0 in WeatherCatV3.04B91 W/m2
09:19 51 °F 41.19 °F 30.11 in Calm     69% 0 in WeatherCatV3.04B91 W/m2
09:24 51.1 °F 41.29 °F 30.11 in Calm     69% 0 in WeatherCatV3.04B91 W/m2
09:29 51.4 °F 41.2 °F 30.11 in Calm     68% 0 in WeatherCatV3.04B91 W/m2
09:34 51.7 °F 41.48 °F 30.11 in Calm     68% 0 in WeatherCatV3.04B91 W/m2
09:39 51.9 °F 40.51 °F 30.11 in Calm   5 mph 65% 0 in WeatherCatV3.04B91 W/m2
09:44 52 °F 40.2 °F 30.12 in Calm     64% 0 in WeatherCatV3.04B91 W/m2
09:49 52.3 °F 39.67 °F 30.12 in Calm     62% 0 in WeatherCatV3.04B91 W/m2
09:54 52.8 °F 40.56 °F 30.12 in SW 3 mph 3 mph 63% 0 in WeatherCatV3.04B91 W/m2
09:59 53.1 °F 38.27 °F 30.11 in Calm   4 mph 57% 0 in WeatherCatV3.04B91 W/m2
10:04 53.1 °F 37.82 °F 30.11 in Calm     56% 0 in WeatherCatV3.04B91 W/m2
10:09 53.3 °F 38.46 °F 30.11 in Calm     57% 0 in WeatherCatV3.04B91 W/m2
10:14 53.6 °F 38.29 °F 30.10 in Calm     56% 0 in WeatherCatV3.04B91 W/m2
10:19 53.9 °F 38.11 °F 30.10 in Calm   1 mph 55% 0 in WeatherCatV3.04B91 W/m2
10:24 54.1 °F 37.83 °F 30.10 in Calm   1 mph 54% 0 in WeatherCatV3.04B91 W/m2
10:29 54.2 °F 35.97 °F 30.10 in Calm     50% 0 in WeatherCatV3.04B91 W/m2
10:34 54.4 °F 36.15 °F 30.10 in Calm     50% 0 in WeatherCatV3.04B91 W/m2
10:39 54.7 °F 36.93 °F 30.10 in Calm     51% 0 in WeatherCatV3.04B91 W/m2
10:44 55 °F 35.14 °F 30.09 in Calm   2 mph 47% 0 in WeatherCatV3.04B91 W/m2
10:49 55.3 °F 35.42 °F 30.09 in Calm     47% 0 in WeatherCatV3.04B91 W/m2
10:54 55.6 °F 34.6 °F 30.09 in Calm     45% 0 in WeatherCatV3.04B91 W/m2
10:59 55.4 °F 34.42 °F 30.08 in Calm     45% 0 in WeatherCatV3.04B91 W/m2
11:04 55.7 °F 34.69 °F 30.08 in Calm   1 mph 45% 0 in WeatherCatV3.04B91 W/m2
11:09 56 °F 34.4 °F 30.08 in Calm   2 mph 44% 0 in WeatherCatV3.04B91 W/m2
11:14 56.3 °F 34.67 °F 30.07 in Calm     44% 0 in WeatherCatV3.04B91 W/m2
11:19 56.2 °F 32.2 °F 30.07 in Calm     40% 0 in WeatherCatV3.04B91 W/m2
11:24 55.9 °F 31.93 °F 30.07 in Calm     40% 0 in WeatherCatV3.04B91 W/m2
11:29 56 °F 33.24 °F 30.07 in Calm   5 mph 42% 0 in WeatherCatV3.04B91 W/m2
11:34 56.2 °F 32.82 °F 30.07 in Calm     41% 0 in WeatherCatV3.04B91 W/m2
11:39 56.3 °F 32.91 °F 30.07 in Calm     41% 0 in WeatherCatV3.04B91 W/m2
11:44 56.6 °F 33.18 °F 30.06 in Calm   1 mph 41% 0 in WeatherCatV3.04B91 W/m2
11:49 56.9 °F 33.45 °F 30.06 in Calm   2 mph 41% 0 in WeatherCatV3.04B91 W/m2
11:54 57.2 °F 32.47 °F 30.06 in NNW 2 mph 4 mph 39% 0 in WeatherCatV3.04B91 W/m2
11:59 57 °F 31.65 °F 30.05 in Calm   2 mph 38% 0 in WeatherCatV3.04B91 W/m2
12:04 56.9 °F 30.9 °F 30.05 in Calm     37% 0 in WeatherCatV3.04B91 W/m2
12:09 56.6 °F 31.93 °F 30.05 in Calm   4 mph 39% 0 in WeatherCatV3.04B91 W/m2
12:14 56.7 °F 31.38 °F 30.05 in Calm     38% 0 in WeatherCatV3.04B91 W/m2
12:19 57.2 °F 34.32 °F 30.05 in Calm   2 mph 42% 0 in WeatherCatV3.04B91 W/m2
12:24 57.5 °F 32.74 °F 30.05 in Calm     39% 0 in WeatherCatV3.04B91 W/m2
12:29 57.6 °F 32.18 °F 30.04 in Calm   4 mph 38% 0 in WeatherCatV3.04B91 W/m2
12:34 57.5 °F 31.43 °F 30.04 in ENE 1 mph 2 mph 37% 0 in WeatherCatV3.04B91 W/m2
12:39 58 °F 33.18 °F 30.04 in Calm   2 mph 39% 0 in WeatherCatV3.04B91 W/m2
12:44 58.3 °F 32.14 °F 30.04 in Calm   4 mph 37% 0 in WeatherCatV3.04B91 W/m2
12:49 58.4 °F 32.23 °F 30.04 in Calm   4 mph 37% 0 in WeatherCatV3.04B91 W/m2
12:54 58.6 °F 32.41 °F 30.04 in Calm     37% 0 in WeatherCatV3.04B91 W/m2
12:59 58.6 °F 32.41 °F 30.03 in Calm     37% 0 in WeatherCatV3.04B91 W/m2
13:04 58.7 °F 32.5 °F 30.03 in Calm   1 mph 37% 0 in WeatherCatV3.04B91 W/m2
13:09 58.9 °F 29.1 °F 30.03 in Calm   2 mph 32% 0 in WeatherCatV3.04B91 W/m2
13:14 59 °F 30.67 °F 30.02 in Calm   4 mph 34% 0 in WeatherCatV3.04B91 W/m2
13:19 58.9 °F 30.59 °F 30.02 in Calm   1 mph 34% 0 in WeatherCatV3.04B91 W/m2
13:24 59.2 °F 32.26 °F 30.02 in Calm     36% 0 in WeatherCatV3.04B91 W/m2
13:29 59.8 °F 33.48 °F 30.02 in Calm     37% 0 in WeatherCatV3.04B91 W/m2
13:34 60.2 °F 31.73 °F 30.02 in Calm   4 mph 34% 0 in WeatherCatV3.04B91 W/m2
13:39 60.1 °F 30.15 °F 30.02 in Calm     32% 0 in WeatherCatV3.04B91 W/m2
13:44 59.8 °F 29.88 °F 30.01 in Calm     32% 0 in WeatherCatV3.04B91 W/m2
13:49 60.2 °F 33.83 °F 30.01 in East 2 mph 2 mph 37% 0 in WeatherCatV3.04B91 W/m2
13:54 59.9 °F 29.19 °F 30.01 in Calm   2 mph 31% 0 in WeatherCatV3.04B91 W/m2
13:59 60.2 °F 31.73 °F 30.01 in Calm     34% 0 in WeatherCatV3.04B91 W/m2
14:04 60.9 °F 35.12 °F 30.01 in Calm     38% 0 in WeatherCatV3.04B91 W/m2
14:09 61.2 °F 30.32 °F 30.01 in Calm     31% 0 in WeatherCatV3.04B91 W/m2
14:14 61.3 °F 31.95 °F 30.00 in Calm     33% 0 in WeatherCatV3.04B91 W/m2
14:19 60.7 °F 30.67 °F 30.00 in NNE 2 mph 4 mph 32% 0 in WeatherCatV3.04B91 W/m2
14:24 59.9 °F 32.18 °F 30.00 in Calm   2 mph 35% 0 in WeatherCatV3.04B91 W/m2
14:29 60.5 °F 30.5 °F 29.99 in Calm   1 mph 32% 0 in WeatherCatV3.04B91 W/m2
14:34 60.7 °F 32.17 °F 29.99 in Calm   1 mph 34% 0 in WeatherCatV3.04B91 W/m2
14:39 60.9 °F 30.06 °F 29.99 in NNE 1 mph 1 mph 31% 0 in WeatherCatV3.04B91 W/m2
14:44 60.9 °F 30.84 °F 29.99 in Calm     32% 0 in WeatherCatV3.04B91 W/m2
14:49 61.2 °F 28.69 °F 29.99 in Calm     29% 0 in WeatherCatV3.04B91 W/m2
14:54 61.5 °F 27.21 °F 29.99 in Calm   1 mph 27% 0 in WeatherCatV3.04B91 W/m2
14:59 61.6 °F 30.67 °F 29.98 in Calm   3 mph 31% 0 in WeatherCatV3.04B91 W/m2
15:04 61.2 °F 31.87 °F 29.98 in North 2 mph 3 mph 33% 0 in WeatherCatV3.04B91 W/m2
15:09 61.2 °F 30.32 °F 29.98 in Calm   1 mph 31% 0 in WeatherCatV3.04B91 W/m2
15:14 61.2 °F 29.52 °F 29.99 in Calm   1 mph 30% 0 in WeatherCatV3.04B91 W/m2
15:19 61.6 °F 29.04 °F 29.99 in Calm     29% 0 in WeatherCatV3.04B91 W/m2
15:24 62.3 °F 28.78 °F 29.99 in Calm     28% 0 in WeatherCatV3.04B91 W/m2
15:29 63.2 °F 31.25 °F 29.99 in Calm   3 mph 30% 0 in WeatherCatV3.04B91 W/m2
15:34 63.9 °F 34.98 °F 29.99 in Calm   1 mph 34% 0 in WeatherCatV3.04B91 W/m2
15:39 64.5 °F 30.67 °F 29.99 in Calm   1 mph 28% 0 in WeatherCatV3.04B91 W/m2
15:44 64.5 °F 29.78 °F 29.98 in Calm     27% 0 in WeatherCatV3.04B91 W/m2
15:49 64.5 °F 30.67 °F 29.98 in Calm     28% 0 in WeatherCatV3.04B91 W/m2
15:54 64 °F 31.94 °F 29.98 in Calm   2 mph 30% 0 in WeatherCatV3.04B91 W/m2
15:59 63.7 °F 30.85 °F 29.98 in WNW 1 mph 2 mph 29% 0 in WeatherCatV3.04B91 W/m2
16:04 63.7 °F 32.5 °F 29.98 in Calm     31% 0 in WeatherCatV3.04B91 W/m2
16:09 63.1 °F 33.53 °F 29.98 in Calm   5 mph 33% 0 in WeatherCatV3.04B91 W/m2
16:14 62.1 °F 31.89 °F 29.98 in Calm   3 mph 32% 0 in WeatherCatV3.04B91 W/m2
16:19 61.5 °F 32.87 °F 29.98 in Calm     34% 0 in WeatherCatV3.04B91 W/m2
16:24 60.7 °F 32.17 °F 29.98 in Calm   3 mph 34% 0 in WeatherCatV3.04B91 W/m2
16:29 60.2 °F 30.99 °F 29.98 in Calm   1 mph 33% 0 in WeatherCatV3.04B91 W/m2
16:34 59.9 °F 33.56 °F 29.98 in Calm     37% 0 in WeatherCatV3.04B91 W/m2
16:39 60.1 °F 32.36 °F 29.98 in Calm   1 mph 35% 0 in WeatherCatV3.04B91 W/m2
16:44 60.2 °F 33.83 °F 29.97 in Calm     37% 0 in WeatherCatV3.04B91 W/m2
16:49 60.4 °F 33.32 °F 29.97 in Calm     36% 0 in WeatherCatV3.04B91 W/m2
16:54 60.5 °F 31.99 °F 29.97 in Calm     34% 0 in WeatherCatV3.04B91 W/m2
16:59 60.7 °F 32.89 °F 29.96 in Calm   2 mph 35% 0 in WeatherCatV3.04B91 W/m2
17:04 61.2 °F 32.61 °F 29.96 in Calm   3 mph 34% 0 in WeatherCatV3.04B91 W/m2
17:09 61.5 °F 33.59 °F 29.96 in Calm   1 mph 35% 0 in WeatherCatV3.04B91 W/m2
17:14 61.6 °F 32.22 °F 29.96 in Calm     33% 0 in WeatherCatV3.04B91 W/m2
17:19 62 °F 31.8 °F 29.96 in SSE 3 mph 3 mph 32% 0 in WeatherCatV3.04B91 W/m2
17:24 61.6 °F 30.67 °F 29.96 in Calm     31% 0 in WeatherCatV3.04B91 W/m2
17:29 61.5 °F 32.13 °F 29.95 in Calm   6 mph 33% 0 in WeatherCatV3.04B91 W/m2
17:34 61 °F 30.93 °F 29.95 in Calm     32% 0 in WeatherCatV3.04B91 W/m2
17:39 60.9 °F 31.6 °F 29.95 in Calm     33% 0 in WeatherCatV3.04B91 W/m2
17:44 60.7 °F 30.67 °F 29.96 in Calm   5 mph 32% 0 in WeatherCatV3.04B91 W/m2
17:49 60.5 °F 31.25 °F 29.96 in Calm     33% 0 in WeatherCatV3.04B91 W/m2
17:54 60.5 °F 31.25 °F 29.96 in Calm     33% 0 in WeatherCatV3.04B91 W/m2
17:59 60.5 °F 31.99 °F 29.97 in Calm     34% 0 in WeatherCatV3.04B91 W/m2
18:04 60.5 °F 31.25 °F 29.97 in Calm     33% 0 in WeatherCatV3.04B91 W/m2
18:09 60.7 °F 33.59 °F 29.97 in Calm     36% 0 in WeatherCatV3.04B91 W/m2
18:14 61 °F 33.15 °F 29.97 in Calm     35% 0 in WeatherCatV3.04B91 W/m2
18:19 61.2 °F 32.61 °F 29.97 in NE 1 mph 3 mph 34% 0 in WeatherCatV3.04B91 W/m2
18:24 61.3 °F 31.95 °F 29.97 in Calm     33% 0 in WeatherCatV3.04B91 W/m2
18:29 61 °F 30.93 °F 29.96 in Calm     32% 0 in WeatherCatV3.04B91 W/m2
18:34 60.7 °F 31.43 °F 29.96 in Calm     33% 0 in WeatherCatV3.04B91 W/m2
18:39 60.5 °F 31.99 °F 29.96 in Calm     34% 0 in WeatherCatV3.04B91 W/m2
18:44 60.4 °F 31.9 °F 29.96 in Calm     34% 0 in WeatherCatV3.04B91 W/m2
18:49 60.2 °F 28.65 °F 29.96 in Calm     30% 0 in WeatherCatV3.04B91 W/m2
18:54 60.1 °F 31.64 °F 29.96 in Calm     34% 0 in WeatherCatV3.04B91 W/m2
18:59 60.1 °F 31.64 °F 29.96 in Calm     34% 0 in WeatherCatV3.04B91 W/m2
19:04 60.1 °F 31.64 °F 29.96 in Calm   2 mph 34% 0 in WeatherCatV3.04B91 W/m2
19:09 60.1 °F 32.36 °F 29.96 in Calm     35% 0 in WeatherCatV3.04B91 W/m2
19:14 60.1 °F 31.64 °F 29.95 in Calm     34% 0 in WeatherCatV3.04B91 W/m2
19:19 60.1 °F 30.9 °F 29.95 in Calm   2 mph 33% 0 in WeatherCatV3.04B91 W/m2
19:24 59.9 °F 32.88 °F 29.95 in Calm     36% 0 in WeatherCatV3.04B91 W/m2
19:29 59.8 °F 32.79 °F 29.95 in Calm     36% 0 in WeatherCatV3.04B91 W/m2
19:34 59.6 °F 32.62 °F 29.95 in Calm     36% 0 in WeatherCatV3.04B91 W/m2
19:39 59.3 °F 33.03 °F 29.95 in Calm     37% 0 in WeatherCatV3.04B91 W/m2
19:44 59.2 °F 32.94 °F 29.95 in Calm     37% 0 in WeatherCatV3.04B91 W/m2
19:49 58.9 °F 34.62 °F 29.95 in Calm     40% 0 in WeatherCatV3.04B91 W/m2
19:54 58.7 °F 33.81 °F 29.95 in Calm     39% 0 in WeatherCatV3.04B91 W/m2
19:59 58.4 °F 34.17 °F 29.95 in Calm     40% 0 in WeatherCatV3.04B91 W/m2
20:04 58.3 °F 34.7 °F 29.95 in Calm     41% 0 in WeatherCatV3.04B91 W/m2
20:09 58.1 °F 34.52 °F 29.95 in Calm     41% 0 in WeatherCatV3.04B91 W/m2
20:14 57.8 °F 34.86 °F 29.95 in Calm     42% 0 in WeatherCatV3.04B91 W/m2
20:19 57.6 °F 35.27 °F 29.95 in Calm     43% 0 in WeatherCatV3.04B91 W/m2
20:24 57.3 °F 34.41 °F 29.95 in Calm   1 mph 42% 0 in WeatherCatV3.04B91 W/m2
20:29 57.2 °F 34.32 °F 29.95 in Calm   1 mph 42% 0 in WeatherCatV3.04B91 W/m2
20:34 57 °F 34.73 °F 29.95 in Calm     43% 0 in WeatherCatV3.04B91 W/m2
20:39 56.9 °F 35.78 °F 29.95 in Calm     45% 0 in WeatherCatV3.04B91 W/m2
20:44 56.6 °F 35.51 °F 29.95 in Calm     45% 0 in WeatherCatV3.04B91 W/m2
20:49 56.3 °F 35.79 °F 29.95 in Calm     46% 0 in WeatherCatV3.04B91 W/m2
20:54 56 °F 36.59 °F 29.95 in Calm     48% 0 in WeatherCatV3.04B91 W/m2
20:59 55.7 °F 36.31 °F 29.95 in Calm     48% 0 in WeatherCatV3.04B91 W/m2
21:04 55.6 °F 36.74 °F 29.95 in Calm     49% 0 in WeatherCatV3.04B91 W/m2
21:09 55.4 °F 36.56 °F 29.95 in Calm     49% 0 in WeatherCatV3.04B91 W/m2
21:14 55.1 °F 36.8 °F 29.95 in Calm     50% 0 in WeatherCatV3.04B91 W/m2
21:19 55 °F 36.7 °F 29.95 in Calm     50% 0 in WeatherCatV3.04B91 W/m2
21:24 55 °F 36.7 °F 29.95 in Calm   4 mph 50% 0 in WeatherCatV3.04B91 W/m2
21:29 54.8 °F 36.52 °F 29.95 in Calm     50% 0 in WeatherCatV3.04B91 W/m2
21:34 54.8 °F 37.02 °F 29.95 in Calm     51% 0 in WeatherCatV3.04B91 W/m2
21:39 54.7 °F 36.93 °F 29.95 in SSW 1 mph 1 mph 51% 0 in WeatherCatV3.04B91 W/m2
21:44 54.7 °F 36.93 °F 29.95 in Calm     51% 0 in WeatherCatV3.04B91 W/m2
21:49 54.5 °F 36.75 °F 29.95 in Calm     51% 0 in WeatherCatV3.04B91 W/m2
21:54 54.5 °F 37.24 °F 29.95 in Calm   1 mph 52% 0 in WeatherCatV3.04B91 W/m2
21:59 54.4 °F 37.15 °F 29.95 in Calm     52% 0 in WeatherCatV3.04B91 W/m2
22:04 54.2 °F 36.96 °F 29.95 in Calm   1 mph 52% 0 in WeatherCatV3.04B91 W/m2
22:09 54.2 °F 36.96 °F 29.95 in Calm     52% 0 in WeatherCatV3.04B91 W/m2
22:14 54.1 °F 37.35 °F 29.95 in Calm     53% 0 in WeatherCatV3.04B91 W/m2
22:19 53.9 °F 37.17 °F 29.95 in Calm   2 mph 53% 0 in WeatherCatV3.04B91 W/m2
22:24 53.9 °F 37.17 °F 29.95 in Calm     53% 0 in WeatherCatV3.04B91 W/m2
22:29 53.9 °F 37.17 °F 29.95 in Calm   1 mph 53% 0 in WeatherCatV3.04B91 W/m2
22:34 53.8 °F 37.07 °F 29.95 in Calm   1 mph 53% 0 in WeatherCatV3.04B91 W/m2
22:39 53.8 °F 37.07 °F 29.95 in Calm   1 mph 53% 0 in WeatherCatV3.04B91 W/m2
22:44 53.8 °F 37.07 °F 29.95 in Calm     53% 0 in WeatherCatV3.04B91 W/m2
22:49 53.8 °F 37.07 °F 29.95 in Calm   3 mph 53% 0 in WeatherCatV3.04B91 W/m2
22:54 53.8 °F 37.55 °F 29.95 in SSW 2 mph 2 mph 54% 0 in WeatherCatV3.04B91 W/m2
22:59 53.6 °F 37.36 °F 29.95 in Calm     54% 0 in WeatherCatV3.04B91 W/m2
23:04 53.6 °F 37.36 °F 29.95 in Calm   4 mph 54% 0 in WeatherCatV3.04B91 W/m2
23:09 53.8 °F 37.07 °F 29.95 in Calm   5 mph 53% 0 in WeatherCatV3.04B91 W/m2
23:14 53.8 °F 37.07 °F 29.94 in Calm     53% 0 in WeatherCatV3.04B91 W/m2
23:19 53.8 °F 37.07 °F 29.94 in Calm   1 mph 53% 0 in WeatherCatV3.04B91 W/m2
23:24 53.8 °F 37.07 °F 29.94 in Calm   1 mph 53% 0 in WeatherCatV3.04B91 W/m2
23:29 53.9 °F 37.17 °F 29.94 in Calm     53% 0 in WeatherCatV3.04B91 W/m2
23:34 53.8 °F 37.07 °F 29.94 in Calm     53% 0 in WeatherCatV3.04B91 W/m2
23:39 53.8 °F 37.07 °F 29.94 in Calm   3 mph 53% 0 in WeatherCatV3.04B91 W/m2
23:44 53.8 °F 37.07 °F 29.93 in Calm     53% 0 in WeatherCatV3.04B91 W/m2
23:49 53.8 °F 37.07 °F 29.93 in Calm     53% 0 in WeatherCatV3.04B91 W/m2
23:54 53.8 °F 37.07 °F 29.93 in Calm     53% 0 in WeatherCatV3.04B91 W/m2
23:59 53.8 °F 37.55 °F 29.93 in Calm     54% 0 in WeatherCatV3.04B91 W/m2
Bellevue, Nebraska, USA
Compliments of Weather Underground - 3.25 mb